Location: *
(44.3526°S, 44.9014°W)
Time: 23:12:11
(UTC+00:00)

Cosmos 968 Rocket - Pass Details

Date: 13 May 2025
Orbit: 736 x 766 km, 74.0° (Epoch: 14 June)

Event Time Altitude Azimuth Distance (km) Brightness Sun altitude
Rises 21:53:05 0° 339° (NNW) 3,226 7.1 -23.0°
Reaches altitude 10° 21:55:27 10° 337° (NNW) 2,305 6.3 -23.4°
Maximum altitude 22:00:43 82° 249° (WSW) 783 3.5 -24.3°
Enters shadow 22:02:51 37° 165° (SSE) 1,186 4.3 -24.7°
